Weather History for Jackson Hawkins Field, MS

Change the Weather History Date:

Sunday, November 4, 2012

  Actual Average (KJAN) Record (KJAN)
Temperature  
Mean Temperature 60 °F 59 °F  
Max Temperature 69 °F 71 °F 89 °F (1922)
Min Temperature 50 °F 47 °F 25 °F (1966)
Degree Days  
Heating Degree Days 4 7  
Month to date heating degree days 27  
Since 1 July heating degree days 134  
Cooling Degree Days 0 1  
Month to date cooling degree days 5  
Year to date cooling degree days 2236  
Growing Degree Days 10 (Base 50)    
Moisture  
Dew Point 58 °F    
Average Humidity 86    
Maximum Humidity 100    
Minimum Humidity 61    
Precipitation  
Precipitation 0.41 in 0.14 in 1.95 in (1925)
Month to date precipitation 0.55  
Year to date precipitation 44.78  
Sea Level Pressure  
Sea Level Pressure 30.10 in    
Wind  
Wind Speed 5 mph (NNW)    
Max Wind Speed 13 mph    
Max Gust Speed 20 mph    
Visibility 8 miles    
Events Rain , Thunderstorm    
T = Trace of Precipitation, MM = Missing Value Source: NWS Daily Summary

Daily Weather History Graph

Daily Weather History Graph

Search for Another Location

Airport:

Trip Planner

Search our weather history database for the weather conditions in past years. The results will help you decide how hot, cold, wet, or windy it might be!

Date:

Astronomy

Nov. 04, 2012 Rise Set
Actual Time 6:20 AM CST 5:07 PM CST
Civil Twilight 5:55 AM CST 5:33 PM CST
Nautical Twilight 5:26 AM CST 6:02 PM CST
Astronomical Twilight 4:57 AM CST 6:30 PM CST
Moon 9:48 PM CST (11/4) 11:01 AM CST (11/4)
Length of Visible Light 11h 37m
Length of Day
10h 46m
Waning Gibbous, 72% of the Moon is Illuminated
Nov 4
Waning Gibbous
Nov 6
Last Quarter
Nov 13
New
Nov 20
First Quarter
Nov 28
Full

Hourly Weather History & Observations

Time (CST) Temp. Dew Point Humidity Pressure Visibility Wind Dir Wind Speed Gust Speed Precip Events Conditions
12:53 AM 68.0 °F 60.1 °F 76% 30.05 in 10.0 mi SW 8.1 mph - N/A   Mostly Cloudy
1:53 AM 68.0 °F 61.0 °F 78% 30.03 in 10.0 mi SW 8.1 mph - N/A   Clear
1:51 AM 68.0 °F 60.8 °F 78% 30.07 in 10.0 mi WNW 6.9 mph - N/A Thunderstorm Overcast
1:53 AM 68.0 °F 60.1 °F 76% 30.05 in 10.0 mi WNW 6.9 mph - N/A Thunderstorm Overcast
2:35 AM 66.2 °F 57.2 °F 73% 30.08 in 10.0 mi NNE 6.9 mph - N/A Thunderstorm Thunderstorm
2:49 AM 64.4 °F 57.2 °F 77% 30.08 in 10.0 mi NNE 6.9 mph - 0.01 in Rain , Thunderstorm Light Rain
2:53 AM 64.9 °F 57.9 °F 78% 30.06 in 10.0 mi North 6.9 mph - 0.01 in Rain , Thunderstorm Light Rain
3:06 AM 62.6 °F 59.0 °F 88% 30.09 in 1.5 mi Variable 3.5 mph - 0.15 in Rain Heavy Rain
3:17 AM 62.6 °F 60.8 °F 94% 30.08 in 3.0 mi ENE 8.1 mph - 0.19 in Rain Light Rain
3:33 AM 62.6 °F 60.8 °F 94% 30.09 in 7.0 mi NE 4.6 mph - 0.22 in Rain , Thunderstorm Light Rain
3:48 AM 62.6 °F 60.8 °F 94% 30.09 in 8.0 mi ENE 4.6 mph - 0.23 in Rain Light Rain
3:53 AM 62.1 °F 60.1 °F 93% 30.08 in 9.0 mi Calm Calm - 0.23 in Rain Light Rain
4:53 AM 61.0 °F 60.1 °F 97% 30.09 in 4.0 mi East 4.6 mph - 0.09 in Rain Heavy Rain
5:53 AM 61.0 °F 60.1 °F 97% 30.09 in 6.0 mi SE 3.5 mph - 0.04 in Rain Light Rain
6:53 AM 61.0 °F 60.1 °F 97% 30.09 in 4.0 mi East 3.5 mph - 0.03 in Rain Light Rain
7:25 AM 60.8 °F 60.8 °F 100% 30.12 in 6.0 mi West 3.5 mph - 0.01 in Rain Light Rain
7:39 AM 60.8 °F 60.8 °F 100% 30.13 in 9.0 mi West 3.5 mph - 0.01 in   Overcast
7:53 AM 62.1 °F 60.1 °F 93% 30.13 in 9.0 mi West 8.1 mph - 0.01 in Rain Light Rain
8:05 AM 62.6 °F 60.8 °F 94% 30.14 in 8.0 mi NW 4.6 mph - 0.00 in Rain Light Rain
8:44 AM 62.6 °F 60.8 °F 94% 30.14 in 10.0 mi Calm Calm - 0.00 in Rain Light Rain
8:53 AM 63.0 °F 60.1 °F 90% 30.11 in 10.0 mi Calm Calm - 0.00 in   Mostly Cloudy
9:02 AM 62.6 °F 60.8 °F 94% 30.13 in 10.0 mi Calm Calm - N/A   Scattered Clouds
9:53 AM 64.0 °F 61.0 °F 90% 30.09 in 10.0 mi Calm Calm - N/A   Mostly Cloudy
10:03 AM 64.4 °F 60.8 °F 88% 30.12 in 10.0 mi Calm Calm - N/A   Mostly Cloudy
10:15 AM 64.4 °F 60.8 °F 88% 30.13 in 10.0 mi NW 6.9 mph - N/A   Mostly Cloudy
10:22 AM 64.4 °F 60.8 °F 88% 30.13 in 10.0 mi NNW 6.9 mph - N/A   Mostly Cloudy
10:53 AM 64.9 °F 60.1 °F 84% 30.12 in 10.0 mi NNW 8.1 mph - N/A   Overcast
11:01 AM 64.4 °F 60.8 °F 88% 30.14 in 10.0 mi NNW 12.7 mph 18.4 mph N/A   Overcast
11:11 AM 60.8 °F 57.2 °F 88% 30.14 in 4.0 mi North 9.2 mph 19.6 mph N/A   Overcast
11:53 AM 59.0 °F 55.9 °F 90% 30.12 in 4.0 mi NW 3.5 mph - N/A   Overcast
12:23 PM 60.8 °F 55.4 °F 82% 30.13 in 6.0 mi North 5.8 mph - N/A   Haze
12:53 PM 62.1 °F 55.9 °F 80% 30.10 in 7.0 mi Variable 5.8 mph - N/A   Overcast
1:27 PM 66.2 °F 57.2 °F 73% 30.09 in 10.0 mi Variable 4.6 mph - N/A   Scattered Clouds
1:53 PM 69.1 °F 55.0 °F 61% 30.06 in 10.0 mi NNW 6.9 mph - N/A   Partly Cloudy
2:53 PM 64.9 °F 55.0 °F 70% 30.08 in 10.0 mi NW 6.9 mph - N/A   Clear
3:53 PM 64.0 °F 54.0 °F 70% 30.07 in 10.0 mi Variable 5.8 mph - N/A   Clear
4:53 PM 63.0 °F 53.1 °F 70% 30.07 in 10.0 mi Calm Calm - N/A   Clear
5:53 PM 57.9 °F 53.1 °F 84% 30.09 in 10.0 mi Calm Calm - N/A   Clear
6:53 PM 57.0 °F 51.1 °F 81% 30.10 in 10.0 mi North 3.5 mph - N/A   Clear
7:53 PM 54.0 °F 51.1 °F 90% 30.11 in 9.0 mi Calm Calm - N/A   Clear
8:53 PM 53.1 °F 50.0 °F 89% 30.12 in 8.0 mi NW 3.5 mph - N/A   Clear
9:53 PM 52.0 °F 48.9 °F 89% 30.11 in 9.0 mi Calm Calm - N/A   Partly Cloudy
10:53 PM 50.0 °F 48.0 °F 93% 30.10 in 5.0 mi Calm Calm - N/A   Clear